Location: Newark
(36.0797°N, 3.9744°E)
Time: 20:02:32
(UTC+00:00)

Vanguard 2 Rocket - Pass Details

Date: 08 December 2019
Orbit: 554 x 3326 km, 32.9° (Epoch: 29 January)

Event Time Altitude Azimuth Distance (km) Brightness Sun altitude
Rises 20:01:42 0° 261° (W) 5,643 11.8 -42.1°
Reaches altitude 10° 20:06:08 10° 260° (W) 4,178 10.9 -43.0°
Enters shadow 20:12:59 40° 249° (WSW) 1,887 8.6 -44.4°
Maximum altitude 20:16:11 70° 179° (S) 1,211 - -45.0°
Drops below altitude 10° 20:21:50 10° 96° (E) 2,428 - -46.1°
Sets 20:23:49 0° 94° (E) 3,168 - -46.5°
